STARLINK-2423 (47833 NORAD) Tracking and Keplerian Element Data

This shows tracking and keplerian element data for the satellite.

Feedback or suggestion? Click here.




ElementValue
Catalog47833
NameSTARLINK-2423
Epoch Orbit1728
Epoch Day173.87949396
Epoch Year2021
RAAN56.6232
Inclination53.0564
Eccentricity0.0001894
Argument of Perigee91.0682
Mean Anonmoly269.0524
Mean Motion15.06397506
Decay Rate7.79E-06
L11 47833U 21018AY 21173.87949396 .00000779 00000-0 71234-4 0 9990
L22 47833 53.0564 56.6232 0001894 91.0682 269.0524 15.06397506 17280

Live tracking and technical data element details for STARLINK-2423 (NORAD 47833). STARLINK-2423 can be tracked NOW for your location showing map with azimuth and elevation plus other details from your city location.

Track the satellite on the map from your city or location and see movement details for azimuth, elevation, latitude, longitude, range, height, and movement on the map or in text.







IsCatalogInMostPopularTable: catalog: 47833, numindb: 44
Update: records affected: 1



GetName: 47833 STARLINK-2423

Hit Count: updated at: Thu, 24 Jun 2021 02:27:01 GMT